AAL746 KPHL-LFMN

Flight info

Callsign AAL746
Flight time N/A
Altitude 17000
Route DITCH T416 JIMEE/N0488F330 DCT WAVEY/N0481F350 DCT SHLEP DCT YAHOO DCT DOVEY/M084F350 DCT 42N060W 44N050W 46N040W 48N030W 50N020W DCT SOMAX DCT ATSUR/M084F370 DCT TAKAS/N0482F370 DCT ALUTA DCT TERKU DCT KORER DCT LEMKA DCT BEBIX DCT LERGA DCT LIQID DCT LATAM DCT TUNUR DCT NISAR
Aircraft B77W/H-SDE1E2E3FGHIJ2J3J4J5M1RWXY/LB1D1

Departure

Time 2026-05-05 12:50
Airport Philadelphia International Airport (KPHL)

Arrival

Time N/A
Airport Nice-Côte d'Azur Airport (LFMN)
Time Latitude Longitude Altitude Speed Heading
2026-05-05 12:36 39.87339 -75.25092 30 ft 0 kts 295°
2026-05-05 12:41 39.87339 -75.25091 30 ft 2 kts 295°
2026-05-05 12:42 39.87333 -75.25072 28 ft 2 kts 293°
2026-05-05 12:42 39.87326 -75.25053 29 ft 2 kts 292°
2026-05-05 12:42 39.87320 -75.25033 28 ft 2 kts 290°
2026-05-05 12:42 39.87315 -75.25012 27 ft 2 kts 287°
2026-05-05 12:43 39.87311 -75.24992 29 ft 2 kts 282°
2026-05-05 12:43 39.87308 -75.24971 29 ft 2 kts 276°
2026-05-05 12:43 39.87307 -75.24950 30 ft 2 kts 265°
2026-05-05 12:43 39.87310 -75.24929 30 ft 2 kts 245°
2026-05-05 12:44 39.87319 -75.24912 28 ft 2 kts 204°
2026-05-05 12:44 39.87329 -75.24908 29 ft 0 kts 168°
2026-05-05 12:44 39.87330 -75.24908 29 ft 0 kts 166°
2026-05-05 12:45 39.87281 -75.24892 30 ft 15 kts 166°
2026-05-05 12:45 39.87181 -75.24859 30 ft 15 kts 166°
2026-05-05 12:45 39.87084 -75.24822 28 ft 15 kts 159°
2026-05-05 12:45 39.86988 -75.24767 27 ft 16 kts 163°
2026-05-05 12:46 39.86930 -75.24685 29 ft 12 kts 88°
2026-05-05 12:46 39.86958 -75.24553 30 ft 19 kts 75°
2026-05-05 12:46 39.86997 -75.24357 30 ft 26 kts 76°
2026-05-05 12:46 39.87039 -75.24124 30 ft 26 kts 84°
2026-05-05 12:47 39.87068 -75.23901 30 ft 26 kts 75°
2026-05-05 12:47 39.87104 -75.23673 29 ft 26 kts 76°
2026-05-05 12:47 39.87125 -75.23493 29 ft 7 kts 112°
2026-05-05 12:47 39.87081 -75.23456 29 ft 10 kts 161°
2026-05-05 12:48 39.86986 -75.23419 27 ft 18 kts 165°
2026-05-05 12:48 39.86881 -75.23460 27 ft 16 kts 240°
2026-05-05 12:48 39.86869 -75.23560 28 ft 2 kts 261°
2026-05-05 12:48 39.86864 -75.23593 28 ft 4 kts 260°
2026-05-05 12:49 39.86845 -75.23698 28 ft 37 kts 256°
2026-05-05 12:49 39.86718 -75.24334 28 ft 106 kts 255°
2026-05-05 12:49 39.86479 -75.25516 32 ft 161 kts 255°
2026-05-05 12:49 39.86176 -75.27082 177 ft 189 kts 254°
2026-05-05 12:50 39.85828 -75.28839 475 ft 212 kts 254°
2026-05-05 12:50 39.85465 -75.30711 1183 ft 210 kts 252°
2026-05-05 12:50 39.84983 -75.32453 2191 ft 201 kts 249°
2026-05-05 12:50 39.84332 -75.34117 2724 ft 217 kts 238°
2026-05-05 12:51 39.83094 -75.35325 3162 ft 242 kts 200°
2026-05-05 12:51 39.81381 -75.35239 3900 ft 260 kts 162°
2026-05-05 12:51 39.79913 -75.33790 4621 ft 274 kts 130°
2026-05-05 12:51 39.78896 -75.31630 5260 ft 285 kts 122°
2026-05-05 12:52 39.77949 -75.29352 6120 ft 287 kts 119°
2026-05-05 12:52 39.77427 -75.26829 6850 ft 298 kts 92°
2026-05-05 12:52 39.77909 -75.21632 8128 ft 308 kts 86°
2026-05-05 12:53 39.78112 -75.18849 8972 ft 311 kts 89°
2026-05-05 12:53 39.78345 -75.14147 10247 ft 319 kts 90°
2026-05-05 12:53 39.78447 -75.11342 10633 ft 337 kts 90°
2026-05-05 12:54 39.78629 -75.05002 11025 ft 386 kts 90°
2026-05-05 12:54 39.78720 -75.01423 11436 ft 404 kts 90°
2026-05-05 12:54 39.78812 -74.97724 12088 ft 414 kts 90°
2026-05-05 12:55 39.78903 -74.93947 12849 ft 422 kts 90°
2026-05-05 12:55 39.78990 -74.90206 13628 ft 428 kts 89°
2026-05-05 12:55 39.79071 -74.86681 14280 ft 434 kts 89°
2026-05-05 12:55 39.79160 -74.82758 15094 ft 437 kts 89°
2026-05-05 12:56 39.79248 -74.78797 15933 ft 439 kts 89°
2026-05-05 12:56 39.79333 -74.74862 16708 ft 443 kts 89°
2026-05-05 12:56 39.79435 -74.70822 16994 ft 455 kts 87°
2026-05-05 12:56 39.79683 -74.66856 16971 ft 463 kts 84°
2026-05-05 12:57 39.80050 -74.62693 16972 ft 463 kts 83°
2026-05-05 12:57 39.80403 -74.58880 16974 ft 464 kts 83°
2026-05-05 12:57 39.80751 -74.54977 16971 ft 465 kts 84°
2026-05-05 12:57 39.81099 -74.50812 16974 ft 466 kts 84°
2026-05-05 12:58 39.81421 -74.46779 16972 ft 466 kts 84°
2026-05-05 12:58 39.81721 -74.42735 16977 ft 466 kts 86°
2026-05-05 12:58 39.81839 -74.38530 16967 ft 465 kts 90°
2026-05-05 12:58 39.81798 -74.34377 16974 ft 465 kts 92°
2026-05-05 12:59 39.81732 -74.30307 16972 ft 464 kts 91°
2026-05-05 12:59 39.81702 -74.26253 16968 ft 464 kts 91°
2026-05-05 12:59 39.81698 -74.22062 16971 ft 461 kts 90°
2026-05-05 13:00 39.82865 -74.14013 16986 ft 462 kts 65°
2026-05-05 13:00 39.84359 -74.10318 16972 ft 460 kts 54°
2026-05-05 13:01 39.90018 -74.00412 17410 ft 467 kts 51°
2026-05-05 13:01 39.91794 -73.97220 18291 ft 465 kts 51°
2026-05-05 13:01 39.93686 -73.93802 19091 ft 465 kts 51°
2026-05-05 13:01 39.95584 -73.90365 19728 ft 470 kts 52°
2026-05-05 13:02 39.97502 -73.86890 20294 ft 475 kts 52°
2026-05-05 13:02 39.99436 -73.83380 20906 ft 479 kts 52°
2026-05-05 13:02 40.01295 -73.80006 21395 ft 484 kts 52°
2026-05-05 13:02 40.03269 -73.76418 21985 ft 488 kts 52°
2026-05-05 13:03 40.05229 -73.72850 22549 ft 492 kts 52°
2026-05-05 13:03 40.07227 -73.69210 23114 ft 496 kts 52°
2026-05-05 13:03 40.09152 -73.65699 23598 ft 500 kts 52°
2026-05-05 13:03 40.11185 -73.61987 24047 ft 503 kts 52°
2026-05-05 13:04 40.13219 -73.58268 24539 ft 505 kts 53°
2026-05-05 13:04 40.15267 -73.54520 24968 ft 508 kts 53°
2026-05-05 13:04 40.17309 -73.50777 25361 ft 511 kts 53°
2026-05-05 13:04 40.19367 -73.47001 25767 ft 514 kts 53°
2026-05-05 13:05 40.21439 -73.43195 26133 ft 517 kts 53°
2026-05-05 13:05 40.23526 -73.39358 26489 ft 519 kts 53°
2026-05-05 13:05 40.25628 -73.35577 26885 ft 520 kts 52°
2026-05-05 13:05 40.27790 -73.31809 27368 ft 519 kts 52°
2026-05-05 13:06 40.29971 -73.28057 27955 ft 515 kts 52°
2026-05-05 13:06 40.32134 -73.24336 28556 ft 512 kts 52°
2026-05-05 13:06 40.34285 -73.20616 29144 ft 510 kts 53°
2026-05-05 13:06 40.36411 -73.16919 29716 ft 507 kts 53°
2026-05-05 13:07 40.38401 -73.13444 30175 ft 506 kts 53°
2026-05-05 13:07 40.40558 -73.09668 30566 ft 506 kts 53°
2026-05-05 13:07 40.42638 -73.06018 30941 ft 505 kts 53°
2026-05-05 13:07 40.44665 -73.02456 31323 ft 505 kts 53°
2026-05-05 13:08 40.46671 -72.98929 31690 ft 504 kts 53°
2026-05-05 13:08 40.48769 -72.95238 32060 ft 503 kts 53°
2026-05-05 13:08 40.50856 -72.91560 32432 ft 502 kts 53°
2026-05-05 13:08 40.52936 -72.87892 32842 ft 500 kts 53°
2026-05-05 13:09 40.55015 -72.84221 33205 ft 500 kts 53°
2026-05-05 13:09 40.57088 -72.80555 33531 ft 500 kts 53°
2026-05-05 13:09 40.59131 -72.76940 33839 ft 500 kts 53°
2026-05-05 13:09 40.61203 -72.73268 34137 ft 499 kts 53°
2026-05-05 13:10 40.63267 -72.69607 34438 ft 498 kts 53°
2026-05-05 13:10 40.65326 -72.65940 34719 ft 497 kts 54°
2026-05-05 13:10 40.67166 -72.62093 34907 ft 498 kts 63°
2026-05-05 13:10 40.68579 -72.57922 34950 ft 500 kts 70°
2026-05-05 13:11 40.70255 -72.49070 34990 ft 497 kts 81°
2026-05-05 13:11 40.71469 -72.40175 34982 ft 495 kts 80°
2026-05-05 13:12 40.72705 -72.31476 34986 ft 494 kts 80°
2026-05-05 13:12 40.73966 -72.22730 34977 ft 494 kts 79°
2026-05-05 13:13 40.75251 -72.13817 34986 ft 495 kts 79°
2026-05-05 13:13 40.76510 -72.05020 34995 ft 497 kts 80°
2026-05-05 13:14 40.77748 -71.96308 35001 ft 498 kts 80°
2026-05-05 13:14 40.79019 -71.87307 34983 ft 499 kts 80°
2026-05-05 13:15 40.80272 -71.78384 34994 ft 500 kts 80°
2026-05-05 13:15 40.81517 -71.69466 34990 ft 500 kts 80°
2026-05-05 13:16 40.82722 -71.60787 34993 ft 499 kts 80°
2026-05-05 13:16 40.83965 -71.51778 34988 ft 498 kts 80°
2026-05-05 13:17 40.85184 -71.42893 34996 ft 498 kts 80°
2026-05-05 13:17 40.86412 -71.33886 34997 ft 498 kts 80°
2026-05-05 13:18 40.87635 -71.24862 35003 ft 499 kts 80°
2026-05-05 13:18 40.88843 -71.15892 34995 ft 499 kts 80°
2026-05-05 13:19 40.90051 -71.06867 34999 ft 499 kts 80°
2026-05-05 13:19 40.91219 -70.98087 35007 ft 498 kts 81°
2026-05-05 13:20 40.92412 -70.89066 35002 ft 498 kts 81°
2026-05-05 13:20 40.93589 -70.80107 35004 ft 498 kts 81°
2026-05-05 13:21 40.94768 -70.71072 35014 ft 498 kts 81°
2026-05-05 13:21 40.95930 -70.62117 35016 ft 499 kts 81°
2026-05-05 13:22 40.97035 -70.53550 35012 ft 499 kts 81°
2026-05-05 13:22 40.98194 -70.44505 35023 ft 498 kts 81°
2026-05-05 13:23 40.99346 -70.35460 35016 ft 498 kts 81°
2026-05-05 13:23 41.00481 -70.26485 35024 ft 498 kts 81°
2026-05-05 13:24 41.01576 -70.17777 35020 ft 498 kts 81°
2026-05-05 13:24 41.02706 -70.08727 35021 ft 497 kts 81°
2026-05-05 13:25 41.03810 -69.99829 35027 ft 498 kts 81°
2026-05-05 13:25 41.04904 -69.90946 35027 ft 498 kts 81°
2026-05-05 13:26 41.06014 -69.81890 35022 ft 498 kts 81°
2026-05-05 13:26 41.07037 -69.72811 35028 ft 498 kts 85°
2026-05-05 13:27 41.07312 -69.63651 35035 ft 498 kts 89°
2026-05-05 13:27 41.07497 -69.54486 35043 ft 497 kts 89°
2026-05-05 13:28 41.07715 -69.45400 35045 ft 498 kts 88°
2026-05-05 13:28 41.07955 -69.36229 35057 ft 498 kts 88°
2026-05-05 13:29 41.08194 -69.27062 35055 ft 498 kts 88°
2026-05-05 13:29 41.08424 -69.17883 35059 ft 498 kts 88°
2026-05-05 13:30 41.08643 -69.08790 35067 ft 499 kts 88°
2026-05-05 13:30 41.08853 -68.99785 35060 ft 499 kts 89°
2026-05-05 13:31 41.09058 -68.90669 35065 ft 499 kts 89°
2026-05-05 13:31 41.09258 -68.81472 35066 ft 499 kts 88°
2026-05-05 13:32 41.09448 -68.72342 35074 ft 500 kts 89°
2026-05-05 13:32 41.09634 -68.63128 35075 ft 500 kts 89°
2026-05-05 13:33 41.09812 -68.53917 35081 ft 500 kts 89°
2026-05-05 13:33 41.09982 -68.44708 35091 ft 499 kts 89°
2026-05-05 13:34 41.10144 -68.35565 35095 ft 499 kts 89°
2026-05-05 13:34 41.10300 -68.26372 35087 ft 499 kts 89°
2026-05-05 13:35 41.10448 -68.17177 35086 ft 499 kts 89°
2026-05-05 13:35 41.10585 -68.08251 35090 ft 500 kts 89°
2026-05-05 13:36 41.10715 -67.99324 35090 ft 500 kts 89°
2026-05-05 13:36 41.10843 -67.90112 35094 ft 500 kts 89°
2026-05-05 13:37 41.10963 -67.80887 35096 ft 500 kts 89°
2026-05-05 13:37 41.11074 -67.71729 35106 ft 500 kts 89°
2026-05-05 13:38 41.11180 -67.62503 35107 ft 500 kts 89°
2026-05-05 13:38 41.11277 -67.53285 35105 ft 500 kts 89°
2026-05-05 13:39 41.11368 -67.44067 35111 ft 500 kts 89°
2026-05-05 13:39 41.11451 -67.34851 35108 ft 500 kts 89°
2026-05-05 13:40 41.11526 -67.25705 35113 ft 499 kts 89°
2026-05-05 13:40 41.11595 -67.16500 35112 ft 499 kts 89°
2026-05-05 13:41 41.11657 -67.07290 35124 ft 499 kts 89°
2026-05-05 13:41 41.11944 -66.98341 35121 ft 499 kts 82°
2026-05-05 13:42 41.13305 -66.89398 35131 ft 498 kts 77°
2026-05-05 13:42 41.14774 -66.80415 35128 ft 499 kts 77°
2026-05-05 13:43 41.16198 -66.71397 35135 ft 499 kts 77°
2026-05-05 13:43 41.17537 -66.62774 35133 ft 500 kts 77°
2026-05-05 13:44 41.18921 -66.53796 35137 ft 500 kts 77°
2026-05-05 13:44 41.20308 -66.44763 35137 ft 501 kts 77°
2026-05-05 13:45 41.21691 -66.35717 35139 ft 501 kts 77°
2026-05-05 13:45 41.23070 -66.26649 35139 ft 501 kts 77°
2026-05-05 13:46 41.24433 -66.17633 35138 ft 501 kts 77°
2026-05-05 13:46 41.25799 -66.08549 35149 ft 501 kts 77°
2026-05-05 13:47 41.27116 -65.99743 35148 ft 502 kts 77°
2026-05-05 13:47 41.28446 -65.90797 35141 ft 502 kts 77°
2026-05-05 13:48 41.29737 -65.82062 35151 ft 502 kts 77°
2026-05-05 13:48 41.31064 -65.73036 35156 ft 502 kts 77°
2026-05-05 13:49 41.32390 -65.63971 35153 ft 502 kts 78°
2026-05-05 13:49 41.33691 -65.55019 35150 ft 503 kts 78°
2026-05-05 13:50 41.35012 -65.45873 35173 ft 503 kts 77°
2026-05-05 13:50 41.36320 -65.36775 35160 ft 504 kts 77°
2026-05-05 13:51 41.37627 -65.27623 35157 ft 504 kts 77°
2026-05-05 13:51 41.38927 -65.18465 35165 ft 504 kts 78°
2026-05-05 13:52 41.40216 -65.09329 35173 ft 505 kts 78°
2026-05-05 13:52 41.41498 -65.00190 35172 ft 505 kts 78°
2026-05-05 13:53 41.42746 -64.91241 35177 ft 506 kts 78°
2026-05-05 13:53 41.44023 -64.82021 35174 ft 506 kts 78°
2026-05-05 13:54 41.45294 -64.72793 35173 ft 506 kts 78°
2026-05-05 13:54 41.46551 -64.63612 35175 ft 506 kts 78°
2026-05-05 13:55 41.47800 -64.54433 35176 ft 506 kts 78°
2026-05-05 13:55 41.49048 -64.45197 35194 ft 506 kts 78°
2026-05-05 13:56 41.50287 -64.35975 35174 ft 506 kts 78°
2026-05-05 13:56 41.51521 -64.26731 35178 ft 506 kts 78°
2026-05-05 13:57 41.52740 -64.17540 35184 ft 506 kts 78°
2026-05-05 13:57 41.53955 -64.08318 35182 ft 506 kts 78°
2026-05-05 13:58 41.55128 -63.99365 35176 ft 507 kts 78°
2026-05-05 13:58 41.56330 -63.90133 35193 ft 507 kts 78°
2026-05-05 13:59 41.58121 -63.76251 35185 ft 508 kts 78°
2026-05-05 14:00 41.59699 -63.63897 35188 ft 508 kts 78°
2026-05-05 14:00 41.61077 -63.53037 35191 ft 508 kts 78°
2026-05-05 14:01 41.62250 -63.43718 35192 ft 509 kts 78°
2026-05-05 14:01 41.63347 -63.34948 35192 ft 509 kts 78°
2026-05-05 14:02 41.64478 -63.25843 35191 ft 509 kts 78°
2026-05-05 14:02 41.65629 -63.16507 35193 ft 509 kts 79°
2026-05-05 14:03 41.66758 -63.07301 35196 ft 509 kts 79°
2026-05-05 14:03 41.67789 -62.98828 35200 ft 510 kts 79°
2026-05-05 14:04 41.68889 -62.89727 35203 ft 510 kts 79°
2026-05-05 14:04 41.69996 -62.80509 35194 ft 510 kts 79°
2026-05-05 14:05 41.71069 -62.71511 35192 ft 510 kts 79°
2026-05-05 14:05 41.72094 -62.62857 35203 ft 510 kts 79°
2026-05-05 14:06 41.73143 -62.53941 35204 ft 510 kts 79°
2026-05-05 14:06 41.74205 -62.44858 35202 ft 510 kts 79°
2026-05-05 14:07 41.75269 -62.35685 35207 ft 511 kts 79°
2026-05-05 14:07 41.76349 -62.26303 35204 ft 511 kts 79°
2026-05-05 14:08 41.77377 -62.17314 35203 ft 511 kts 79°
2026-05-05 14:08 41.78443 -62.07920 35206 ft 512 kts 79°
2026-05-05 14:09 41.79479 -61.98721 35206 ft 512 kts 79°
2026-05-05 14:09 41.80534 -61.89291 35223 ft 512 kts 79°
2026-05-05 14:10 41.81583 -61.79835 35216 ft 513 kts 79°
2026-05-05 14:10 41.82624 -61.70377 35208 ft 513 kts 79°
2026-05-05 14:11 41.83651 -61.60975 35212 ft 513 kts 79°
2026-05-05 14:11 41.84678 -61.51499 35211 ft 513 kts 79°
2026-05-05 14:12 41.85697 -61.42022 35203 ft 514 kts 80°
2026-05-05 14:12 41.86709 -61.32531 35220 ft 514 kts 80°
2026-05-05 14:13 41.87714 -61.23033 35216 ft 514 kts 80°
2026-05-05 14:13 41.88706 -61.13586 35215 ft 515 kts 80°
2026-05-05 14:14 41.89696 -61.04074 35214 ft 515 kts 80°
2026-05-05 14:14 41.90655 -60.94793 35218 ft 515 kts 80°
2026-05-05 14:15 41.91629 -60.85278 35237 ft 515 kts 80°
2026-05-05 14:15 41.92590 -60.75816 35224 ft 515 kts 80°
2026-05-05 14:16 41.93549 -60.66289 35219 ft 515 kts 80°
2026-05-05 14:16 41.94501 -60.56762 35224 ft 515 kts 81°
2026-05-05 14:17 41.95444 -60.47233 35229 ft 515 kts 81°
2026-05-05 14:17 41.96380 -60.37693 35232 ft 515 kts 81°
2026-05-05 14:18 41.97304 -60.28203 35228 ft 516 kts 81°
2026-05-05 14:18 41.98227 -60.18630 35235 ft 516 kts 81°
2026-05-05 14:19 41.99143 -60.09055 35218 ft 517 kts 81°
2026-05-05 14:19 42.00165 -59.99748 35233 ft 516 kts 75°
2026-05-05 14:20 42.02243 -59.90669 35242 ft 513 kts 68°
2026-05-05 14:20 42.04587 -59.81583 35237 ft 514 kts 68°
2026-05-05 14:21 42.06880 -59.72461 35237 ft 515 kts 69°
2026-05-05 14:21 42.09144 -59.63317 35236 ft 515 kts 69°
2026-05-05 14:22 42.11400 -59.54157 35246 ft 516 kts 69°
2026-05-05 14:22 42.13640 -59.45035 35239 ft 517 kts 69°
2026-05-05 14:23 42.15893 -59.35833 35243 ft 517 kts 69°
2026-05-05 14:23 42.18141 -59.26613 35242 ft 518 kts 69°
2026-05-05 14:24 42.20381 -59.17389 35243 ft 518 kts 69°
2026-05-05 14:24 42.22602 -59.08207 35251 ft 518 kts 69°
2026-05-05 14:25 42.24774 -58.99192 35230 ft 518 kts 70°
2026-05-05 14:25 42.26998 -58.89927 35247 ft 519 kts 70°
2026-05-05 14:26 42.29215 -58.80652 35246 ft 520 kts 70°
2026-05-05 14:26 42.31428 -58.71352 35245 ft 520 kts 70°
2026-05-05 14:27 42.33622 -58.62099 35251 ft 521 kts 70°
2026-05-05 14:27 42.35824 -58.52770 35251 ft 521 kts 70°
2026-05-05 14:28 42.38020 -58.43427 35246 ft 521 kts 70°
2026-05-05 14:28 42.40211 -58.34074 35255 ft 522 kts 70°
2026-05-05 14:29 42.42397 -58.24695 35252 ft 523 kts 70°
2026-05-05 14:29 42.44566 -58.15355 35256 ft 523 kts 70°
2026-05-05 14:30 42.46733 -58.05982 35255 ft 524 kts 70°
2026-05-05 14:30 42.48848 -57.96793 35264 ft 524 kts 71°
2026-05-05 14:31 42.50998 -57.87418 35251 ft 524 kts 71°
2026-05-05 14:31 42.53155 -57.77970 35252 ft 525 kts 71°
2026-05-05 14:32 42.55304 -57.68514 35261 ft 525 kts 71°
2026-05-05 14:32 42.57451 -57.59030 35265 ft 526 kts 71°
2026-05-05 14:33 42.59594 -57.49522 35263 ft 527 kts 71°
2026-05-05 14:33 42.61714 -57.40070 35263 ft 527 kts 71°
2026-05-05 14:34 42.63844 -57.30539 35259 ft 527 kts 71°
2026-05-05 14:34 42.65967 -57.20995 35263 ft 528 kts 72°
2026-05-05 14:35 42.68084 -57.11436 35254 ft 529 kts 72°
2026-05-05 14:35 42.70182 -57.01917 35263 ft 530 kts 72°
2026-05-05 14:36 42.72237 -56.92556 35264 ft 530 kts 72°
2026-05-05 14:36 42.74339 -56.82935 35269 ft 531 kts 72°
2026-05-05 14:37 42.76435 -56.73306 35262 ft 531 kts 72°
2026-05-05 14:37 42.78131 -56.65477 35249 ft 532 kts 72°
2026-05-05 14:38 42.80514 -56.54423 35265 ft 532 kts 72°
2026-05-05 14:38 42.82593 -56.44738 35275 ft 533 kts 72°
2026-05-05 14:39 42.84646 -56.35131 35269 ft 535 kts 73°
2026-05-05 14:39 42.86716 -56.25394 35259 ft 535 kts 73°
2026-05-05 14:40 42.88766 -56.15708 35261 ft 536 kts 73°
2026-05-05 14:40 42.90824 -56.05941 35251 ft 536 kts 73°
2026-05-05 14:41 42.92489 -55.98004 35256 ft 537 kts 73°
2026-05-05 14:41 42.94537 -55.88200 35261 ft 538 kts 73°
2026-05-05 14:42 42.96911 -55.76775 35262 ft 539 kts 73°
2026-05-05 14:42 42.98948 -55.66925 35271 ft 540 kts 73°
2026-05-05 14:43 43.00630 -55.58749 35265 ft 540 kts 73°
2026-05-05 14:43 43.02985 -55.47253 35256 ft 541 kts 74°
2026-05-05 14:44 43.05001 -55.37358 35261 ft 540 kts 74°
2026-05-05 14:44 43.06671 -55.29127 35273 ft 541 kts 74°
2026-05-05 14:45 43.09011 -55.17532 35267 ft 541 kts 74°
2026-05-05 14:45 43.10670 -55.09274 35253 ft 542 kts 74°
2026-05-05 14:46 43.12941 -54.97909 35257 ft 542 kts 74°
2026-05-05 14:46 43.14588 -54.89635 35245 ft 542 kts 75°
2026-05-05 14:47 43.16563 -54.79659 35267 ft 543 kts 75°
2026-05-05 14:47 43.18849 -54.68043 35266 ft 544 kts 75°
2026-05-05 14:48 43.20810 -54.58030 35266 ft 544 kts 75°
2026-05-05 14:48 43.22764 -54.48004 35248 ft 545 kts 75°
2026-05-05 14:49 43.24385 -54.39641 35276 ft 546 kts 75°
2026-05-05 14:49 43.26329 -54.29572 35244 ft 547 kts 76°
2026-05-05 14:50 43.28268 -54.19472 35270 ft 548 kts 76°
2026-05-05 14:50 43.30191 -54.09403 35282 ft 550 kts 76°
2026-05-05 14:51 43.32089 -53.99413 35274 ft 552 kts 76°
2026-05-05 14:51 43.34020 -53.89198 35281 ft 553 kts 76°
2026-05-05 14:52 43.35943 -53.78967 35270 ft 553 kts 76°
2026-05-05 14:52 43.37858 -53.68725 35259 ft 553 kts 77°
2026-05-05 14:53 43.39754 -53.58534 35280 ft 555 kts 77°
2026-05-05 14:53 43.41659 -53.48229 35276 ft 557 kts 77°
2026-05-05 14:54 43.43559 -53.37897 35277 ft 558 kts 77°
2026-05-05 14:54 43.45455 -53.27534 35276 ft 559 kts 77°
2026-05-05 14:55 43.47347 -53.17136 35273 ft 560 kts 77°
2026-05-05 14:55 43.49218 -53.06796 35261 ft 560 kts 78°
2026-05-05 14:56 43.51055 -52.96580 35275 ft 561 kts 78°
2026-05-05 14:56 43.52925 -52.86125 35279 ft 563 kts 78°
2026-05-05 14:57 43.54780 -52.75695 35278 ft 564 kts 78°
2026-05-05 14:57 43.56641 -52.65175 35274 ft 565 kts 78°
2026-05-05 14:58 43.58494 -52.54635 35277 ft 566 kts 78°
2026-05-05 14:58 43.60338 -52.44084 35252 ft 566 kts 79°
2026-05-05 14:59 43.62175 -52.33513 35284 ft 568 kts 79°
2026-05-05 14:59 43.63998 -52.22955 35282 ft 570 kts 79°
2026-05-05 15:00 43.65533 -52.14019 35286 ft 572 kts 79°
2026-05-05 15:00 43.67659 -52.01567 35294 ft 574 kts 79°
2026-05-05 15:01 43.69446 -51.91036 35283 ft 574 kts 79°
2026-05-05 15:01 43.71247 -51.80356 35252 ft 574 kts 79°
2026-05-05 15:02 43.73050 -51.69598 35276 ft 575 kts 80°
2026-05-05 15:02 43.74846 -51.58812 35292 ft 577 kts 80°
2026-05-05 15:03 43.76638 -51.47979 35287 ft 578 kts 80°
2026-05-05 15:03 43.78410 -51.37204 35289 ft 579 kts 80°
2026-05-05 15:04 43.80186 -51.26338 35287 ft 579 kts 80°
2026-05-05 15:04 43.81954 -51.15453 35264 ft 580 kts 80°
2026-05-05 15:05 43.84542 -50.99379 35290 ft 581 kts 81°
2026-05-05 15:06 43.86289 -50.88443 35294 ft 582 kts 81°
2026-05-05 15:06 43.88029 -50.77481 35292 ft 583 kts 81°
2026-05-05 15:07 43.89761 -50.66502 35288 ft 583 kts 81°
2026-05-05 15:07 43.91470 -50.55594 35287 ft 583 kts 81°
2026-05-05 15:08 43.93179 -50.44610 35287 ft 582 kts 81°
2026-05-05 15:08 43.94878 -50.33614 35290 ft 583 kts 81°
2026-05-05 15:09 43.96564 -50.22627 35296 ft 584 kts 82°
2026-05-05 15:09 43.98248 -50.11581 35298 ft 585 kts 82°
2026-05-05 15:10 43.99940 -50.00605 35300 ft 586 kts 79°
2026-05-05 15:10 44.02373 -49.90021 35304 ft 589 kts 72°
2026-05-05 15:11 44.05145 -49.79310 35284 ft 589 kts 72°
2026-05-05 15:11 44.07871 -49.68568 35296 ft 590 kts 73°
2026-05-05 15:12 44.10534 -49.57846 35305 ft 591 kts 73°
2026-05-05 15:12 44.13198 -49.47009 35294 ft 592 kts 73°
2026-05-05 15:13 44.15854 -49.36168 35293 ft 592 kts 73°
2026-05-05 15:13 44.18509 -49.25303 35302 ft 592 kts 73°
2026-05-05 15:14 44.21151 -49.14441 35296 ft 592 kts 73°
2026-05-05 15:14 44.23765 -49.03646 35290 ft 591 kts 73°
2026-05-05 15:15 44.26330 -48.92997 35291 ft 591 kts 73°
2026-05-05 15:15 44.28937 -48.82122 35304 ft 591 kts 73°
2026-05-05 15:16 44.31531 -48.71245 35295 ft 590 kts 73°
2026-05-05 15:16 44.34096 -48.60440 35294 ft 590 kts 73°
2026-05-05 15:17 44.36669 -48.49552 35301 ft 590 kts 73°
2026-05-05 15:17 44.39229 -48.38661 35295 ft 590 kts 73°
2026-05-05 15:18 44.41779 -48.27762 35293 ft 590 kts 73°
2026-05-05 15:18 44.44301 -48.16928 35273 ft 590 kts 74°
2026-05-05 15:19 44.46832 -48.06001 35299 ft 590 kts 74°
2026-05-05 15:19 44.49310 -47.95256 35300 ft 592 kts 74°
2026-05-05 15:20 44.51829 -47.84271 35299 ft 593 kts 74°
2026-05-05 15:20 44.54325 -47.73334 35302 ft 594 kts 74°
2026-05-05 15:21 44.56829 -47.62303 35298 ft 594 kts 74°
2026-05-05 15:21 44.59325 -47.51257 35299 ft 594 kts 74°
2026-05-05 15:22 44.61810 -47.40200 35312 ft 594 kts 74°
2026-05-05 15:22 44.64264 -47.29223 35255 ft 593 kts 75°
2026-05-05 15:23 44.66720 -47.18185 35304 ft 592 kts 75°
2026-05-05 15:23 44.69164 -47.07138 35310 ft 592 kts 75°
2026-05-05 15:24 44.71552 -46.96290 35308 ft 592 kts 75°
2026-05-05 15:24 44.73976 -46.85221 35311 ft 593 kts 75°
2026-05-05 15:25 44.76376 -46.74204 35300 ft 593 kts 75°
2026-05-05 15:25 44.78783 -46.63098 35312 ft 593 kts 75°
2026-05-05 15:26 44.81178 -46.51987 35310 ft 593 kts 75°
2026-05-05 15:26 44.83564 -46.40860 35257 ft 593 kts 76°
2026-05-05 15:27 44.85922 -46.29806 35314 ft 593 kts 76°
2026-05-05 15:27 44.88286 -46.18662 35310 ft 594 kts 76°
2026-05-05 15:28 44.90641 -46.07495 35311 ft 594 kts 76°
2026-05-05 15:28 44.92942 -45.96530 35311 ft 595 kts 76°
2026-05-05 15:29 44.95264 -45.85405 35311 ft 595 kts 76°
2026-05-05 15:29 44.97591 -45.74197 35309 ft 595 kts 76°
2026-05-05 15:30 44.99905 -45.62986 35312 ft 594 kts 76°
2026-05-05 15:30 45.02204 -45.51789 35268 ft 594 kts 77°
2026-05-05 15:31 45.04494 -45.40574 35312 ft 594 kts 77°
2026-05-05 15:31 45.06759 -45.29413 35322 ft 595 kts 77°
2026-05-05 15:32 45.09033 -45.18144 35321 ft 596 kts 77°
2026-05-05 15:32 45.11302 -45.06843 35319 ft 597 kts 77°
2026-05-05 15:33 45.13516 -44.95751 35320 ft 598 kts 77°
2026-05-05 15:33 45.15765 -44.84419 35317 ft 598 kts 77°
2026-05-05 15:34 45.17988 -44.73154 35328 ft 597 kts 77°
2026-05-05 15:34 45.20211 -44.61822 35268 ft 597 kts 77°
2026-05-05 15:35 45.22419 -44.50503 35314 ft 595 kts 77°
2026-05-05 15:35 45.24611 -44.39194 35320 ft 594 kts 77°
2026-05-05 15:36 45.26776 -44.27961 35318 ft 594 kts 77°
2026-05-05 15:36 45.28944 -44.16648 35322 ft 594 kts 77°
2026-05-05 15:37 45.31101 -44.05323 35323 ft 594 kts 78°
2026-05-05 15:37 45.33203 -43.94224 35314 ft 594 kts 78°
2026-05-05 15:38 45.35336 -43.82894 35325 ft 593 kts 78°
2026-05-05 15:38 45.37442 -43.71641 35256 ft 593 kts 78°
2026-05-05 15:39 45.39546 -43.60334 35314 ft 589 kts 78°
2026-05-05 15:39 45.41626 -43.49079 35310 ft 587 kts 78°
2026-05-05 15:40 45.43688 -43.37857 35309 ft 585 kts 78°
2026-05-05 15:40 45.45722 -43.26725 35313 ft 584 kts 78°
2026-05-05 15:41 45.47753 -43.15535 35322 ft 583 kts 78°
2026-05-05 15:41 45.49774 -43.04332 35319 ft 584 kts 78°
2026-05-05 15:42 45.51745 -42.93341 35319 ft 585 kts 78°
2026-05-05 15:42 45.53737 -42.82163 35319 ft 586 kts 78°
2026-05-05 15:43 45.55729 -42.70922 35323 ft 583 kts 78°
2026-05-05 15:43 45.57702 -42.59717 35304 ft 581 kts 78°
2026-05-05 15:44 45.59656 -42.48549 35304 ft 579 kts 78°
2026-05-05 15:44 45.61578 -42.37494 35306 ft 577 kts 78°
2026-05-05 15:45 45.63498 -42.26377 35323 ft 576 kts 78°
2026-05-05 15:45 45.65405 -42.15271 35307 ft 575 kts 78°
2026-05-05 15:46 45.67299 -42.04170 35313 ft 575 kts 78°
2026-05-05 15:46 45.69135 -41.93339 35315 ft 576 kts 78°
2026-05-05 15:47 45.71013 -41.82187 35304 ft 576 kts 78°
2026-05-05 15:47 45.72876 -41.71057 35308 ft 575 kts 78°
2026-05-05 15:48 45.74726 -41.59934 35307 ft 574 kts 78°
2026-05-05 15:48 45.76548 -41.48906 35309 ft 572 kts 78°
2026-05-05 15:49 45.78369 -41.37811 35307 ft 571 kts 78°
2026-05-05 15:49 45.80176 -41.26734 35310 ft 570 kts 78°
2026-05-05 15:50 45.81967 -41.15673 35315 ft 570 kts 78°
2026-05-05 15:50 45.83739 -41.04666 35310 ft 570 kts 78°
2026-05-05 15:51 45.85477 -40.93794 35309 ft 571 kts 78°
2026-05-05 15:51 45.87238 -40.82705 35302 ft 569 kts 78°
2026-05-05 15:52 45.88984 -40.71635 35299 ft 568 kts 78°
2026-05-05 15:52 45.90704 -40.60658 35302 ft 567 kts 78°
2026-05-05 15:53 45.92424 -40.49610 35307 ft 566 kts 78°
2026-05-05 15:53 45.94130 -40.38573 35306 ft 566 kts 78°
2026-05-05 15:54 45.95824 -40.27538 35304 ft 566 kts 78°
2026-05-05 15:54 45.97496 -40.16571 35308 ft 566 kts 78°
2026-05-05 15:55 45.99172 -40.05512 35305 ft 566 kts 79°
2026-05-05 15:55 46.01159 -39.94818 35297 ft 567 kts 69°
2026-05-05 15:56 46.03898 -39.84195 35308 ft 566 kts 69°
2026-05-05 15:56 46.06612 -39.73620 35302 ft 567 kts 69°
2026-05-05 15:57 46.09292 -39.62931 35299 ft 568 kts 70°
2026-05-05 15:57 46.11943 -39.52208 35300 ft 568 kts 70°
2026-05-05 15:58 46.14566 -39.41542 35293 ft 569 kts 70°
2026-05-05 15:58 46.17200 -39.30796 35294 ft 569 kts 70°
2026-05-05 15:59 46.19829 -39.20033 35294 ft 569 kts 70°
2026-05-05 15:59 46.22448 -39.09257 35291 ft 569 kts 70°
2026-05-05 16:00 46.25001 -38.98702 35290 ft 568 kts 70°
2026-05-05 16:00 46.27575 -38.88009 35291 ft 568 kts 70°
2026-05-05 16:01 46.30160 -38.77218 35290 ft 568 kts 70°
2026-05-05 16:01 46.32733 -38.66425 35284 ft 567 kts 70°
2026-05-05 16:02 46.35294 -38.55629 35282 ft 567 kts 70°
2026-05-05 16:02 46.37841 -38.44840 35284 ft 566 kts 70°
2026-05-05 16:03 46.40358 -38.34125 35245 ft 564 kts 70°
2026-05-05 16:03 46.42867 -38.23391 35260 ft 561 kts 70°
2026-05-05 16:04 46.45356 -38.12686 35274 ft 559 kts 70°
2026-05-05 16:04 46.47830 -38.01998 35267 ft 558 kts 71°
2026-05-05 16:05 46.50226 -37.91598 35275 ft 558 kts 71°
2026-05-05 16:05 46.52675 -37.80915 35270 ft 558 kts 71°
2026-05-05 16:06 46.55119 -37.70198 35267 ft 559 kts 71°
2026-05-05 16:06 46.57555 -37.59465 35269 ft 560 kts 71°
2026-05-05 16:07 46.59968 -37.48780 35264 ft 560 kts 71°
2026-05-05 16:07 46.62391 -37.37994 35265 ft 561 kts 71°
2026-05-05 16:08 46.64805 -37.27195 35259 ft 562 kts 71°
2026-05-05 16:08 46.67211 -37.16377 35252 ft 562 kts 71°
2026-05-05 16:09 46.69591 -37.05616 35260 ft 562 kts 71°
2026-05-05 16:09 46.71931 -36.94987 35262 ft 562 kts 71°
2026-05-05 16:10 46.74307 -36.84137 35250 ft 562 kts 71°
2026-05-05 16:10 46.76670 -36.73292 35238 ft 561 kts 71°
2026-05-05 16:11 46.79002 -36.62528 35246 ft 559 kts 71°
2026-05-05 16:12 46.83656 -36.40885 35240 ft 558 kts 71°
2026-05-05 16:13 46.89384 -36.13928 35244 ft 557 kts 71°
2026-05-05 16:13 46.91664 -36.03102 35248 ft 557 kts 71°
2026-05-05 16:14 46.96154 -35.81606 35259 ft 559 kts 71°
2026-05-05 16:15 47.00642 -35.59886 35248 ft 560 kts 71°
2026-05-05 16:16 47.05108 -35.38039 35247 ft 559 kts 72°
2026-05-05 16:17 47.08414 -35.21706 35245 ft 559 kts 72°
2026-05-05 16:18 47.11709 -35.05291 35253 ft 558 kts 71°
2026-05-05 16:19 47.14927 -34.89130 35251 ft 557 kts 71°
2026-05-05 16:19 47.18168 -34.72720 35248 ft 557 kts 71°
2026-05-05 16:20 47.22435 -34.50892 35253 ft 557 kts 71°
2026-05-05 16:22 47.27724 -34.23489 35267 ft 556 kts 71°
2026-05-05 16:23 47.31889 -34.01631 35266 ft 556 kts 71°
2026-05-05 16:23 47.34950 -33.85402 35277 ft 556 kts 71°
2026-05-05 16:24 47.37010 -33.74399 35280 ft 557 kts 71°
2026-05-05 16:25 47.40073 -33.57919 35268 ft 557 kts 71°
2026-05-05 16:25 47.43119 -33.41378 35262 ft 556 kts 71°
2026-05-05 16:26 47.47123 -33.19422 35273 ft 555 kts 71°
2026-05-05 16:27 47.49113 -33.08408 35276 ft 555 kts 71°
2026-05-05 16:27 47.51049 -32.97623 35291 ft 555 kts 71°
2026-05-05 16:28 47.53020 -32.86582 35281 ft 555 kts 71°
2026-05-05 16:28 47.54967 -32.75609 35286 ft 555 kts 71°
2026-05-05 16:29 47.56920 -32.64534 35301 ft 556 kts 71°
2026-05-05 16:29 47.58859 -32.53465 35285 ft 555 kts 71°
2026-05-05 16:30 47.60784 -32.42407 35283 ft 554 kts 71°
2026-05-05 16:30 47.62683 -32.31434 35306 ft 553 kts 71°
2026-05-05 16:31 47.64582 -32.20388 35310 ft 552 kts 71°
2026-05-05 16:31 47.66465 -32.09370 35296 ft 551 kts 71°
2026-05-05 16:32 47.68293 -31.98608 35295 ft 550 kts 71°
2026-05-05 16:32 47.70148 -31.87615 35299 ft 549 kts 72°
2026-05-05 16:33 47.71978 -31.76698 35312 ft 548 kts 71°
2026-05-05 16:33 47.73815 -31.65678 35664 ft 549 kts 71°
2026-05-05 16:34 47.74723 -31.60195 36110 ft 545 kts 71°
2026-05-05 16:34 47.75622 -31.54741 36549 ft 541 kts 71°
2026-05-05 16:34 47.76514 -31.49322 36951 ft 539 kts 71°
2026-05-05 16:34 47.77401 -31.43922 37261 ft 538 kts 71°
2026-05-05 16:35 47.79167 -31.33139 37311 ft 541 kts 71°
2026-05-05 16:35 47.80928 -31.22292 37308 ft 538 kts 71°
2026-05-05 16:36 47.82667 -31.11503 37315 ft 535 kts 71°
2026-05-05 16:36 47.84394 -31.00736 37358 ft 534 kts 71°
2026-05-05 16:37 47.86061 -30.90277 37327 ft 534 kts 71°
2026-05-05 16:37 47.87765 -30.79507 37329 ft 534 kts 72°
2026-05-05 16:38 47.89459 -30.68729 37330 ft 535 kts 72°
2026-05-05 16:38 47.91146 -30.57928 37346 ft 535 kts 72°
2026-05-05 16:39 47.92823 -30.47117 37332 ft 536 kts 72°
2026-05-05 16:39 47.94491 -30.36290 37322 ft 536 kts 72°
2026-05-05 16:40 47.96138 -30.25529 37333 ft 536 kts 72°
2026-05-05 16:40 47.97784 -30.14699 37352 ft 535 kts 72°
2026-05-05 16:41 47.99420 -30.03872 37327 ft 534 kts 72°
2026-05-05 16:41 48.01493 -29.93574 37336 ft 525 kts 63°
2026-05-05 16:42 48.04099 -29.83481 37332 ft 524 kts 63°
2026-05-05 16:42 48.06697 -29.73312 37341 ft 524 kts 63°
2026-05-05 16:43 48.09251 -29.63120 37337 ft 523 kts 63°
2026-05-05 16:43 48.11777 -29.52927 37336 ft 522 kts 63°
2026-05-05 16:44 48.14271 -29.42809 37338 ft 521 kts 63°
2026-05-05 16:44 48.16774 -29.32619 37348 ft 521 kts 63°
2026-05-05 16:45 48.19269 -29.22425 37347 ft 521 kts 63°
2026-05-05 16:45 48.21753 -29.12230 37344 ft 521 kts 64°
2026-05-05 16:46 48.24211 -29.02092 37381 ft 521 kts 64°
2026-05-05 16:46 48.26630 -28.92073 37354 ft 521 kts 64°
2026-05-05 16:47 48.29082 -28.81865 37350 ft 521 kts 64°
2026-05-05 16:47 48.31513 -28.71696 37349 ft 520 kts 64°
2026-05-05 16:48 48.33948 -28.61465 37376 ft 520 kts 65°
2026-05-05 16:48 48.36376 -28.51216 37354 ft 520 kts 65°
2026-05-05 16:49 48.38790 -28.40979 37350 ft 519 kts 65°
2026-05-05 16:49 48.41190 -28.30750 37358 ft 518 kts 65°
2026-05-05 16:50 48.43563 -28.20593 37372 ft 517 kts 65°
2026-05-05 16:50 48.45937 -28.10378 37361 ft 516 kts 65°
2026-05-05 16:51 48.48296 -28.00182 37355 ft 515 kts 65°
2026-05-05 16:51 48.50578 -27.90274 37361 ft 513 kts 65°
2026-05-05 16:52 48.52908 -27.80111 37356 ft 512 kts 66°
2026-05-05 16:52 48.55222 -27.69966 37360 ft 510 kts 66°
2026-05-05 16:53 48.57514 -27.59867 37355 ft 508 kts 66°
2026-05-05 16:53 48.59780 -27.49844 37362 ft 507 kts 66°
2026-05-05 16:54 48.62045 -27.39771 37361 ft 506 kts 66°
2026-05-05 16:54 48.64304 -27.29682 37360 ft 507 kts 66°
2026-05-05 16:55 48.66557 -27.19571 37360 ft 508 kts 66°
2026-05-05 16:55 48.68804 -27.09435 37356 ft 509 kts 66°
2026-05-05 16:56 48.70984 -26.99554 37363 ft 509 kts 67°
2026-05-05 16:56 48.73215 -26.89389 37358 ft 508 kts 67°
2026-05-05 16:57 48.75430 -26.79247 37359 ft 507 kts 67°
2026-05-05 16:57 48.77619 -26.69180 37360 ft 506 kts 67°
2026-05-05 16:58 48.79807 -26.59065 37367 ft 505 kts 68°
2026-05-05 16:58 48.81986 -26.48946 37360 ft 504 kts 68°
2026-05-05 16:59 48.84151 -26.38838 37361 ft 503 kts 68°
2026-05-05 16:59 48.86306 -26.28731 37361 ft 503 kts 68°
2026-05-05 17:00 48.88439 -26.18677 37367 ft 504 kts 68°
2026-05-05 17:00 48.90583 -26.08524 37364 ft 505 kts 68°
2026-05-05 17:01 48.92674 -25.98566 37360 ft 506 kts 68°
2026-05-05 17:01 48.94806 -25.88365 37359 ft 506 kts 68°
2026-05-05 17:02 48.96918 -25.78205 37363 ft 507 kts 68°
2026-05-05 17:02 48.99038 -25.67953 37349 ft 508 kts 68°
2026-05-05 17:03 49.01142 -25.57726 37365 ft 508 kts 68°
2026-05-05 17:03 49.03246 -25.47452 37364 ft 508 kts 68°
2026-05-05 17:04 49.05339 -25.37175 37361 ft 508 kts 68°
2026-05-05 17:04 49.07408 -25.26960 37355 ft 507 kts 68°
2026-05-05 17:05 49.09478 -25.16691 37353 ft 506 kts 68°
2026-05-05 17:05 49.11538 -25.06418 37351 ft 506 kts 68°
2026-05-05 17:06 49.13541 -24.96374 37362 ft 506 kts 68°
2026-05-05 17:06 49.15567 -24.86167 37356 ft 505 kts 68°
2026-05-05 17:07 49.17595 -24.75890 37351 ft 505 kts 68°
2026-05-05 17:07 49.19608 -24.65638 37350 ft 505 kts 68°
2026-05-05 17:08 49.21623 -24.55326 37352 ft 507 kts 68°
2026-05-05 17:08 49.23617 -24.45061 37349 ft 507 kts 68°
2026-05-05 17:09 49.25619 -24.34696 37346 ft 508 kts 68°
2026-05-05 17:09 49.27615 -24.24307 37346 ft 509 kts 68°
2026-05-05 17:10 49.29605 -24.13896 37351 ft 510 kts 69°
2026-05-05 17:10 49.31573 -24.03538 37344 ft 509 kts 69°
2026-05-05 17:11 49.33500 -23.93343 37340 ft 509 kts 69°
2026-05-05 17:11 49.35459 -23.82916 37341 ft 508 kts 69°
2026-05-05 17:12 49.37408 -23.72493 37341 ft 508 kts 69°
2026-05-05 17:12 49.39330 -23.62150 37341 ft 507 kts 69°
2026-05-05 17:13 49.41253 -23.51746 37334 ft 506 kts 69°
2026-05-05 17:13 49.43164 -23.41350 37341 ft 506 kts 69°
2026-05-05 17:14 49.45065 -23.30947 37341 ft 505 kts 69°
2026-05-05 17:14 49.46943 -23.20615 37339 ft 505 kts 70°
2026-05-05 17:15 49.48826 -23.10197 37338 ft 506 kts 70°
2026-05-05 17:15 49.50682 -22.99869 37340 ft 506 kts 70°
2026-05-05 17:16 49.52525 -22.89553 37344 ft 507 kts 70°
2026-05-05 17:16 49.54370 -22.79164 37334 ft 507 kts 70°
2026-05-05 17:17 49.56217 -22.68698 37329 ft 506 kts 70°
2026-05-05 17:17 49.58055 -22.58229 37332 ft 506 kts 70°
2026-05-05 17:18 49.59884 -22.47751 37334 ft 506 kts 71°
2026-05-05 17:18 49.61689 -22.37344 37336 ft 506 kts 71°
2026-05-05 17:19 49.63495 -22.26872 37329 ft 505 kts 71°
2026-05-05 17:19 49.65290 -22.16397 37320 ft 505 kts 71°
2026-05-05 17:20 49.67075 -22.05924 37340 ft 504 kts 71°
2026-05-05 17:20 49.68798 -21.95753 37333 ft 504 kts 71°
2026-05-05 17:21 49.70563 -21.85271 37325 ft 504 kts 71°
2026-05-05 17:22 49.73191 -21.69542 37355 ft 504 kts 72°
2026-05-05 17:22 49.74932 -21.59045 37326 ft 504 kts 72°
2026-05-05 17:23 49.76650 -21.48620 37321 ft 503 kts 72°
2026-05-05 17:23 49.78367 -21.38132 37319 ft 503 kts 72°
2026-05-05 17:24 49.80076 -21.27633 37331 ft 503 kts 72°
2026-05-05 17:24 49.81774 -21.17140 37316 ft 503 kts 73°
2026-05-05 17:25 49.83450 -21.06709 37315 ft 502 kts 73°
2026-05-05 17:25 49.85093 -20.96425 37315 ft 502 kts 73°
2026-05-05 17:26 49.86759 -20.85928 37313 ft 502 kts 73°
2026-05-05 17:26 49.88416 -20.75426 37316 ft 502 kts 74°
2026-05-05 17:27 49.90063 -20.64914 37309 ft 501 kts 74°
2026-05-05 17:27 49.91688 -20.54473 37304 ft 501 kts 74°
2026-05-05 17:28 49.93315 -20.43960 37306 ft 501 kts 74°
2026-05-05 17:28 49.94930 -20.33451 37306 ft 501 kts 75°
2026-05-05 17:29 49.96537 -20.22924 37302 ft 501 kts 75°
2026-05-05 17:29 49.98123 -20.12471 37296 ft 500 kts 75°
2026-05-05 17:30 49.99671 -20.01951 37297 ft 501 kts 78°
2026-05-05 17:30 50.00287 -19.91460 37308 ft 503 kts 87°
2026-05-05 17:31 50.00435 -19.80597 37296 ft 503 kts 87°
2026-05-05 17:31 50.00607 -19.69734 37293 ft 503 kts 87°
2026-05-05 17:32 50.00798 -19.58950 37291 ft 502 kts 87°
2026-05-05 17:32 50.00991 -19.48092 37295 ft 502 kts 87°
2026-05-05 17:33 50.01174 -19.37236 37288 ft 502 kts 87°
2026-05-05 17:33 50.01344 -19.26389 37285 ft 502 kts 87°
2026-05-05 17:34 50.01502 -19.15618 37287 ft 502 kts 87°
2026-05-05 17:34 50.01652 -19.04765 37279 ft 502 kts 87°
2026-05-05 17:35 50.01788 -18.94167 37283 ft 502 kts 87°
2026-05-05 17:35 50.01896 -18.85156 37271 ft 501 kts 88°
2026-05-05 17:36 50.02017 -18.74313 37277 ft 501 kts 88°
2026-05-05 17:36 50.02145 -18.61723 37277 ft 501 kts 88°
2026-05-05 17:37 50.02244 -18.50876 37282 ft 502 kts 88°
2026-05-05 17:37 50.02333 -18.40027 37273 ft 502 kts 88°
2026-05-05 17:38 50.02399 -18.31010 37269 ft 502 kts 88°
2026-05-05 17:38 50.02480 -18.18406 37269 ft 501 kts 88°
2026-05-05 17:39 50.02539 -18.07566 37268 ft 501 kts 88°
2026-05-05 17:39 50.02580 -17.98798 37270 ft 501 kts 88°
2026-05-05 17:40 50.02626 -17.86128 37262 ft 501 kts 89°
2026-05-05 17:40 50.02650 -17.77120 37261 ft 501 kts 89°
2026-05-05 17:41 50.02673 -17.64546 37261 ft 500 kts 89°
2026-05-05 17:41 50.02681 -17.55470 37263 ft 500 kts 89°
2026-05-05 17:42 50.02681 -17.44731 37253 ft 500 kts 89°
2026-05-05 17:42 50.02671 -17.33913 37246 ft 500 kts 89°
2026-05-05 17:43 50.02651 -17.23107 37251 ft 500 kts 89°
2026-05-05 17:43 50.02616 -17.10552 37259 ft 499 kts 89°
2026-05-05 17:44 50.02582 -17.01572 37245 ft 500 kts 89°
2026-05-05 17:44 50.02533 -16.91006 37241 ft 500 kts 89°
2026-05-05 17:45 50.02474 -16.80203 37239 ft 499 kts 89°
2026-05-05 17:45 50.02404 -16.69404 37239 ft 499 kts 90°
2026-05-05 17:46 50.02324 -16.58614 37240 ft 500 kts 90°
2026-05-05 17:46 50.02235 -16.47880 37232 ft 500 kts 90°
2026-05-05 17:47 50.02135 -16.37071 37221 ft 500 kts 90°
2026-05-05 17:47 50.02025 -16.26258 37233 ft 500 kts 90°
2026-05-05 17:48 50.01906 -16.15452 37231 ft 500 kts 90°
2026-05-05 17:48 50.01777 -16.04708 37216 ft 500 kts 90°
2026-05-05 17:49 50.01640 -15.94124 37219 ft 500 kts 90°
2026-05-05 17:49 50.01490 -15.83329 37208 ft 500 kts 90°
2026-05-05 17:50 50.01330 -15.72526 37214 ft 499 kts 90°
2026-05-05 17:50 50.01162 -15.61816 37216 ft 499 kts 90°
2026-05-05 17:51 50.00983 -15.51036 37209 ft 499 kts 90°
2026-05-05 17:51 50.00794 -15.40262 37203 ft 498 kts 90°
2026-05-05 17:52 50.00595 -15.29493 37207 ft 498 kts 91°
2026-05-05 17:52 50.00386 -15.18732 37214 ft 498 kts 91°
2026-05-05 17:53 50.00170 -15.08038 37205 ft 498 kts 91°
2026-05-05 17:53 49.99956 -14.97527 37203 ft 498 kts 90°
2026-05-05 17:54 49.99964 -14.86778 37195 ft 497 kts 88°
2026-05-05 17:54 50.00054 -14.76025 37191 ft 497 kts 88°
2026-05-05 17:55 50.00099 -14.65355 37195 ft 497 kts 89°
2026-05-05 17:55 50.00109 -14.54596 37188 ft 498 kts 89°
2026-05-05 17:56 50.00105 -14.43845 37184 ft 497 kts 89°
2026-05-05 17:56 50.00094 -14.33090 37185 ft 497 kts 89°
2026-05-05 17:57 50.00074 -14.22421 37177 ft 497 kts 89°
2026-05-05 17:57 50.00045 -14.11672 37177 ft 497 kts 89°
2026-05-05 17:58 49.99923 -14.00930 37173 ft 498 kts 93°
2026-05-05 17:58 49.98790 -13.90558 37179 ft 498 kts 102°
2026-05-05 17:59 49.97266 -13.80129 37177 ft 499 kts 102°
2026-05-05 17:59 49.95759 -13.69611 37179 ft 499 kts 102°
2026-05-05 18:00 49.94274 -13.59122 37169 ft 499 kts 102°
2026-05-05 18:00 49.92779 -13.48581 37173 ft 499 kts 102°
2026-05-05 18:01 49.91287 -13.38136 37172 ft 499 kts 102°
2026-05-05 18:01 49.89774 -13.27636 37162 ft 499 kts 102°
2026-05-05 18:02 49.88253 -13.17151 37160 ft 498 kts 102°
2026-05-05 18:02 49.86721 -13.06668 37157 ft 498 kts 102°
2026-05-05 18:03 49.85228 -12.96511 37154 ft 498 kts 102°
2026-05-05 18:03 49.83680 -12.86059 37155 ft 497 kts 102°
2026-05-05 18:04 49.82126 -12.75629 37167 ft 497 kts 102°
2026-05-05 18:04 49.80572 -12.65274 37151 ft 497 kts 102°
2026-05-05 18:05 49.79001 -12.54870 37151 ft 496 kts 102°
2026-05-05 18:05 49.77421 -12.44475 37146 ft 496 kts 102°
2026-05-05 18:06 49.75833 -12.34094 37135 ft 496 kts 102°
2026-05-05 18:06 49.74237 -12.23730 37155 ft 495 kts 102°
2026-05-05 18:07 49.72642 -12.13445 37123 ft 495 kts 102°
2026-05-05 18:07 49.71029 -12.03103 37140 ft 495 kts 103°
2026-05-05 18:08 49.69444 -11.93003 37137 ft 495 kts 103°
2026-05-05 18:08 49.67813 -11.82678 37137 ft 495 kts 103°
2026-05-05 18:09 49.66185 -11.72434 37138 ft 495 kts 103°
2026-05-05 18:09 49.64537 -11.62127 37136 ft 495 kts 103°
2026-05-05 18:10 49.62881 -11.51836 37134 ft 494 kts 103°
2026-05-05 18:10 49.61214 -11.41544 37121 ft 494 kts 103°
2026-05-05 18:11 49.59551 -11.31338 37125 ft 494 kts 103°
2026-05-05 18:11 49.57869 -11.21076 37121 ft 494 kts 103°
2026-05-05 18:12 49.56179 -11.10826 37122 ft 494 kts 103°
2026-05-05 18:12 49.54481 -11.00589 37112 ft 493 kts 103°
2026-05-05 18:13 49.52813 -10.90592 37125 ft 493 kts 103°
2026-05-05 18:13 49.51110 -10.80449 37103 ft 493 kts 103°
2026-05-05 18:14 49.49386 -10.70241 37115 ft 493 kts 104°
2026-05-05 18:14 49.47653 -10.60036 37105 ft 493 kts 104°
2026-05-05 18:15 49.45913 -10.49856 37101 ft 492 kts 104°
2026-05-05 18:15 49.44176 -10.39749 37108 ft 492 kts 104°
2026-05-05 18:16 49.42420 -10.29591 37113 ft 492 kts 104°
2026-05-05 18:16 49.40655 -10.19436 37103 ft 492 kts 104°
2026-05-05 18:17 49.38881 -10.09293 37103 ft 492 kts 104°
2026-05-05 18:17 49.37151 -9.99452 37098 ft 492 kts 104°
2026-05-05 18:18 49.35360 -9.89323 37097 ft 492 kts 104°
2026-05-05 18:18 49.33560 -9.79201 37102 ft 492 kts 104°
2026-05-05 18:19 49.31750 -9.69084 37098 ft 492 kts 104°
2026-05-05 18:19 49.29946 -9.59049 37090 ft 492 kts 104°
2026-05-05 18:20 49.28119 -9.48949 37092 ft 492 kts 104°
2026-05-05 18:20 49.26286 -9.38866 37090 ft 492 kts 104°
2026-05-05 18:21 49.24444 -9.28793 37086 ft 491 kts 104°
2026-05-05 18:21 49.22593 -9.18723 37084 ft 492 kts 104°
2026-05-05 18:22 49.20746 -9.08736 37083 ft 491 kts 104°
2026-05-05 18:22 49.18923 -8.98922 37081 ft 492 kts 105°
2026-05-05 18:23 49.17061 -8.88961 37085 ft 492 kts 104°
2026-05-05 18:23 49.15189 -8.78994 37082 ft 491 kts 105°
2026-05-05 18:24 49.13333 -8.69165 37075 ft 491 kts 105°
2026-05-05 18:24 49.11450 -8.59243 37076 ft 490 kts 105°
2026-05-05 18:25 49.09555 -8.49314 37073 ft 490 kts 105°
2026-05-05 18:25 49.07640 -8.39332 37079 ft 490 kts 105°
2026-05-05 18:26 49.05720 -8.29371 37071 ft 489 kts 105°
2026-05-05 18:26 49.03807 -8.19498 37061 ft 489 kts 105°
2026-05-05 18:27 49.01873 -8.09565 37058 ft 489 kts 105°
2026-05-05 18:27 49.00349 -7.99758 37062 ft 486 kts 96°
2026-05-05 18:28 49.00126 -7.84580 37068 ft 482 kts 86°
2026-05-05 18:28 49.00279 -7.74380 37056 ft 482 kts 87°
2026-05-05 18:29 49.00379 -7.64184 37057 ft 481 kts 87°
2026-05-05 18:29 49.00362 -7.53994 37051 ft 482 kts 93°
2026-05-05 18:30 48.99187 -7.43972 37064 ft 484 kts 104°
2026-05-05 18:30 48.96996 -7.34367 37060 ft 485 kts 108°
2026-05-05 18:31 48.94700 -7.24705 37049 ft 486 kts 108°
2026-05-05 18:31 48.92425 -7.15038 37047 ft 486 kts 108°
2026-05-05 18:32 48.90159 -7.05368 37042 ft 486 kts 108°
2026-05-05 18:32 48.87969 -6.96043 37045 ft 486 kts 107°
2026-05-05 18:33 48.85690 -6.86382 37033 ft 486 kts 108°
2026-05-05 18:33 48.83400 -6.76727 37033 ft 485 kts 108°
2026-05-05 18:34 48.81107 -6.67108 37031 ft 485 kts 108°
2026-05-05 18:34 48.78820 -6.57549 37028 ft 485 kts 108°
2026-05-05 18:35 48.76509 -6.47933 37034 ft 485 kts 109°
2026-05-05 18:35 48.74192 -6.38337 37024 ft 485 kts 108°
2026-05-05 18:36 48.71866 -6.28744 37021 ft 485 kts 109°
2026-05-05 18:36 48.69552 -6.19238 37010 ft 485 kts 109°
2026-05-05 18:37 48.67213 -6.09670 37024 ft 485 kts 108°
2026-05-05 18:37 48.64869 -6.00126 37020 ft 485 kts 109°
2026-05-05 18:38 48.62592 -5.90897 37015 ft 484 kts 109°
2026-05-05 18:38 48.60246 -5.81426 37006 ft 484 kts 109°
2026-05-05 18:39 48.57883 -5.71923 36998 ft 483 kts 109°
2026-05-05 18:39 48.55513 -5.62438 37001 ft 483 kts 110°
2026-05-05 18:40 48.53136 -5.52961 37002 ft 483 kts 110°
2026-05-05 18:40 48.50753 -5.43503 36998 ft 482 kts 110°
2026-05-05 18:41 48.48384 -5.34136 36992 ft 482 kts 109°
2026-05-05 18:41 48.45999 -5.24747 36988 ft 482 kts 110°
2026-05-05 18:42 48.43622 -5.15428 37001 ft 483 kts 110°
2026-05-05 18:42 48.41213 -5.06018 36992 ft 483 kts 110°
2026-05-05 18:43 48.38842 -4.96796 36992 ft 484 kts 110°
2026-05-05 18:43 48.36420 -4.87417 36975 ft 484 kts 110°
2026-05-05 18:44 48.33974 -4.77982 36997 ft 485 kts 110°
2026-05-05 18:44 48.31519 -4.68552 36999 ft 485 kts 111°
2026-05-05 18:45 48.29083 -4.59232 37002 ft 485 kts 110°
2026-05-05 18:45 48.26611 -4.49812 36984 ft 485 kts 110°
2026-05-05 18:46 48.24147 -4.40462 36988 ft 486 kts 110°
2026-05-05 18:46 48.21664 -4.31079 36981 ft 485 kts 110°
2026-05-05 18:47 48.19170 -4.21686 36981 ft 484 kts 111°
2026-05-05 18:47 48.16805 -4.12822 36965 ft 483 kts 111°
2026-05-05 18:48 48.14367 -4.03713 36971 ft 482 kts 111°
2026-05-05 18:48 48.11930 -3.94648 36968 ft 481 kts 111°
2026-05-05 18:49 48.09426 -3.85363 36970 ft 481 kts 111°
2026-05-05 18:49 48.06911 -3.76077 36973 ft 482 kts 111°
2026-05-05 18:50 48.04407 -3.66862 36967 ft 482 kts 112°
2026-05-05 18:50 48.01846 -3.57620 36970 ft 482 kts 113°
2026-05-05 18:51 47.99073 -3.48522 36963 ft 482 kts 114°
2026-05-05 18:51 47.96293 -3.39570 36967 ft 482 kts 114°
2026-05-05 18:52 47.93511 -3.30536 36960 ft 482 kts 114°
2026-05-05 18:52 47.90741 -3.21505 36953 ft 482 kts 114°
2026-05-05 18:53 47.87965 -3.12475 36949 ft 483 kts 114°
2026-05-05 18:53 47.85225 -3.03600 36952 ft 482 kts 114°
2026-05-05 18:54 47.82485 -2.94756 36951 ft 482 kts 115°
2026-05-05 18:54 47.79689 -2.85766 36945 ft 482 kts 115°
2026-05-05 18:55 47.76893 -2.76809 36913 ft 481 kts 115°
2026-05-05 18:55 47.74114 -2.67938 36913 ft 481 kts 115°
2026-05-05 18:56 47.71310 -2.59011 36911 ft 481 kts 115°
2026-05-05 18:56 47.68461 -2.50147 36919 ft 481 kts 118°
2026-05-05 18:57 47.64878 -2.41887 36921 ft 480 kts 124°
2026-05-05 18:57 47.61123 -2.33735 36912 ft 480 kts 124°
2026-05-05 18:58 47.57380 -2.25541 36914 ft 480 kts 124°
2026-05-05 18:58 47.53650 -2.17348 36912 ft 480 kts 124°
2026-05-05 18:59 47.49944 -2.09218 36909 ft 480 kts 124°
2026-05-05 18:59 47.46205 -2.01045 36912 ft 480 kts 124°
2026-05-05 19:00 47.42576 -1.93136 36903 ft 480 kts 124°
2026-05-05 19:00 47.38827 -1.84992 36890 ft 479 kts 124°
2026-05-05 19:01 47.35102 -1.76926 36885 ft 479 kts 125°
2026-05-05 19:01 47.31339 -1.68798 36882 ft 480 kts 125°
2026-05-05 19:02 47.27569 -1.60681 36886 ft 480 kts 125°
2026-05-05 19:02 47.23789 -1.52565 36885 ft 481 kts 125°
2026-05-05 19:03 47.20008 -1.44471 36880 ft 481 kts 126°
2026-05-05 19:03 47.16281 -1.36517 36879 ft 481 kts 125°
2026-05-05 19:04 47.12478 -1.28423 36882 ft 482 kts 126°
2026-05-05 19:04 47.08661 -1.20324 36888 ft 482 kts 125°
2026-05-05 19:05 47.04837 -1.12232 36872 ft 483 kts 126°
2026-05-05 19:05 47.01038 -1.04215 36876 ft 482 kts 126°
2026-05-05 19:06 46.97313 -0.96381 36870 ft 481 kts 126°
2026-05-05 19:06 46.93488 -0.88357 36873 ft 481 kts 126°
2026-05-05 19:07 46.89680 -0.80392 36870 ft 480 kts 126°
2026-05-05 19:07 46.85911 -0.72530 36871 ft 481 kts 126°
2026-05-05 19:08 46.82068 -0.64537 36872 ft 481 kts 126°
2026-05-05 19:08 46.78212 -0.56541 36873 ft 482 kts 127°
2026-05-05 19:09 46.74347 -0.48548 36869 ft 482 kts 126°
2026-05-05 19:09 46.70500 -0.40613 36872 ft 483 kts 126°
2026-05-05 19:10 46.66621 -0.32632 36875 ft 483 kts 127°
2026-05-05 19:10 46.62746 -0.24646 36876 ft 483 kts 125°
2026-05-05 19:11 46.59276 -0.16280 36879 ft 483 kts 121°
2026-05-05 19:11 46.55961 -0.07850 36878 ft 484 kts 121°
2026-05-05 19:12 46.52690 0.00381 36878 ft 484 kts 121°
2026-05-05 19:12 46.49290 0.08818 36884 ft 484 kts 122°
2026-05-05 19:13 46.45872 0.17243 36885 ft 485 kts 122°
2026-05-05 19:13 46.42440 0.25673 36886 ft 485 kts 122°
2026-05-05 19:14 46.39026 0.34041 36891 ft 486 kts 122°
2026-05-05 19:14 46.35585 0.42450 36878 ft 486 kts 122°
2026-05-05 19:15 46.32204 0.50688 36891 ft 486 kts 122°
2026-05-05 19:15 46.28751 0.59076 36894 ft 486 kts 122°
2026-05-05 19:16 46.25315 0.67397 36891 ft 487 kts 122°
2026-05-05 19:16 46.21838 0.75792 36894 ft 487 kts 122°
2026-05-05 19:17 46.18356 0.84174 36885 ft 487 kts 123°
2026-05-05 19:17 46.14895 0.92480 36901 ft 487 kts 123°
2026-05-05 19:18 46.11488 1.00635 36899 ft 487 kts 123°
2026-05-05 19:18 46.08022 1.08902 36906 ft 487 kts 123°
2026-05-05 19:19 46.04514 1.17249 36905 ft 487 kts 123°
2026-05-05 19:19 46.01041 1.25488 36916 ft 487 kts 123°
2026-05-05 19:20 45.97575 1.33690 36918 ft 487 kts 123°
2026-05-05 19:20 45.94259 1.42025 36893 ft 489 kts 116°
2026-05-05 19:21 45.91729 1.51013 36914 ft 491 kts 113°
2026-05-05 19:21 45.89208 1.60121 36904 ft 491 kts 114°
2026-05-05 19:22 45.86646 1.69216 36916 ft 491 kts 114°
2026-05-05 19:22 45.84062 1.78294 36917 ft 492 kts 114°
2026-05-05 19:23 45.81481 1.87321 36921 ft 493 kts 114°
2026-05-05 19:23 45.78875 1.96405 36904 ft 493 kts 114°
2026-05-05 19:24 45.76311 2.05316 36912 ft 493 kts 115°
2026-05-05 19:24 45.73692 2.14387 36913 ft 493 kts 115°
2026-05-05 19:25 45.71084 2.23384 36913 ft 493 kts 115°
2026-05-05 19:25 45.68467 2.32379 36916 ft 493 kts 115°
2026-05-05 19:26 45.65826 2.41424 36912 ft 493 kts 115°
2026-05-05 19:26 45.63178 2.50462 36914 ft 493 kts 115°
2026-05-05 19:27 45.60522 2.59492 36914 ft 493 kts 116°
2026-05-05 19:27 45.57878 2.68446 36914 ft 493 kts 116°
2026-05-05 19:28 45.55210 2.77454 36903 ft 493 kts 116°
2026-05-05 19:28 45.52533 2.86460 36894 ft 493 kts 116°
2026-05-05 19:29 45.49848 2.95461 36902 ft 494 kts 116°
2026-05-05 19:29 45.47270 3.04067 36910 ft 494 kts 116°
2026-05-05 19:30 45.44632 3.12854 36890 ft 495 kts 116°
2026-05-05 19:30 45.41920 3.21846 36897 ft 496 kts 116°
2026-05-05 19:31 45.39209 3.30802 36904 ft 496 kts 116°
2026-05-05 19:31 45.36479 3.39796 36905 ft 497 kts 116°
2026-05-05 19:32 45.33766 3.48702 36909 ft 497 kts 117°
2026-05-05 19:32 45.31077 3.57496 36900 ft 497 kts 117°
2026-05-05 19:33 45.28343 3.66413 36903 ft 498 kts 117°
2026-05-05 19:33 45.25502 3.75373 36902 ft 496 kts 121°
2026-05-05 19:34 45.22000 3.83341 36907 ft 492 kts 127°
2026-05-05 19:35 45.16467 3.95406 36914 ft 492 kts 126°
2026-05-05 19:35 45.12881 4.03309 36910 ft 492 kts 126°
2026-05-05 19:36 45.09150 4.11424 36903 ft 492 kts 127°
2026-05-05 19:36 45.05411 4.19538 36905 ft 492 kts 127°
2026-05-05 19:37 45.01397 4.27207 36901 ft 485 kts 136°
2026-05-05 19:37 44.96798 4.34127 36906 ft 485 kts 137°
2026-05-05 19:38 44.92200 4.41099 36906 ft 485 kts 136°
2026-05-05 19:38 44.87625 4.48095 36909 ft 485 kts 137°
2026-05-05 19:39 44.83044 4.55099 36915 ft 486 kts 137°
2026-05-05 19:39 44.78577 4.61903 36905 ft 485 kts 137°
2026-05-05 19:40 44.73987 4.68878 36914 ft 486 kts 137°
2026-05-05 19:40 44.69389 4.75851 36914 ft 487 kts 137°
2026-05-05 19:41 44.64796 4.82798 36685 ft 483 kts 137°
2026-05-05 19:41 44.62520 4.86276 36327 ft 484 kts 136°
2026-05-05 19:41 44.60346 4.89728 35946 ft 486 kts 136°
2026-05-05 19:41 44.58092 4.93363 35532 ft 488 kts 136°
2026-05-05 19:42 44.55895 4.96908 35084 ft 488 kts 137°
2026-05-05 19:42 44.53785 5.00290 34283 ft 491 kts 138°
2026-05-05 19:42 44.51611 5.03760 34161 ft 476 kts 138°
2026-05-05 19:42 44.49448 5.07203 33873 ft 466 kts 139°
2026-05-05 19:43 44.47309 5.10601 33321 ft 466 kts 139°
2026-05-05 19:43 44.45154 5.14022 32814 ft 469 kts 139°
2026-05-05 19:43 44.43006 5.17442 32310 ft 467 kts 139°
2026-05-05 19:43 44.40869 5.20847 31803 ft 464 kts 138°
2026-05-05 19:44 44.38750 5.24221 31315 ft 459 kts 138°
2026-05-05 19:44 44.36623 5.27501 30824 ft 449 kts 142°
2026-05-05 19:44 44.34336 5.30290 30380 ft 438 kts 148°
2026-05-05 19:44 44.31992 5.32747 29912 ft 431 kts 150°
2026-05-05 19:45 44.29581 5.35187 29369 ft 426 kts 150°
2026-05-05 19:45 44.27223 5.37616 28928 ft 424 kts 150°
2026-05-05 19:45 44.24878 5.40093 28497 ft 426 kts 149°
2026-05-05 19:45 44.22525 5.42620 28037 ft 428 kts 148°
2026-05-05 19:46 44.20194 5.45156 27586 ft 426 kts 148°
2026-05-05 19:46 44.17895 5.47661 27110 ft 425 kts 148°
2026-05-05 19:46 44.15572 5.50185 26670 ft 422 kts 148°
2026-05-05 19:46 44.13288 5.52657 26228 ft 420 kts 147°
2026-05-05 19:47 44.10989 5.55142 25779 ft 418 kts 147°
2026-05-05 19:47 44.08700 5.57616 25320 ft 416 kts 147°
2026-05-05 19:47 44.06424 5.60077 24872 ft 413 kts 148°
2026-05-05 19:47 44.04161 5.62518 24451 ft 410 kts 147°
2026-05-05 19:48 44.01914 5.64941 24023 ft 408 kts 147°
2026-05-05 19:48 43.99689 5.67336 23591 ft 405 kts 147°
2026-05-05 19:48 43.97465 5.69731 23110 ft 403 kts 147°
2026-05-05 19:48 43.95258 5.72107 22613 ft 400 kts 148°
2026-05-05 19:49 43.93077 5.74452 22196 ft 393 kts 148°
2026-05-05 19:49 43.91654 5.75980 21905 ft 389 kts 148°
2026-05-05 19:49 43.88847 5.78990 21346 ft 382 kts 148°
2026-05-05 19:49 43.86759 5.81227 20950 ft 377 kts 148°
2026-05-05 19:50 43.84726 5.83399 20562 ft 373 kts 148°
2026-05-05 19:50 43.82678 5.85585 20157 ft 371 kts 148°
2026-05-05 19:50 43.80626 5.87770 19783 ft 373 kts 148°
2026-05-05 19:50 43.78565 5.89963 19382 ft 375 kts 148°
2026-05-05 19:51 43.76490 5.92169 19017 ft 378 kts 148°
2026-05-05 19:51 43.74393 5.94400 18604 ft 381 kts 147°
2026-05-05 19:51 43.72312 5.96611 18192 ft 384 kts 147°
2026-05-05 19:51 43.70194 5.98860 17788 ft 384 kts 147°
2026-05-05 19:52 43.68168 6.01015 17451 ft 383 kts 147°
2026-05-05 19:52 43.66064 6.03252 17146 ft 380 kts 147°
2026-05-05 19:52 43.63972 6.05469 16762 ft 378 kts 147°
2026-05-05 19:52 43.61906 6.07654 16335 ft 377 kts 147°
2026-05-05 19:53 43.59948 6.09987 15886 ft 375 kts 136°
2026-05-05 19:53 43.58627 6.13175 15540 ft 394 kts 114°
2026-05-05 19:53 43.57762 6.16788 15129 ft 399 kts 113°
2026-05-05 19:53 43.56828 6.20327 14707 ft 398 kts 115°
2026-05-05 19:54 43.55832 6.23880 14284 ft 396 kts 116°
2026-05-05 19:54 43.54839 6.27406 13897 ft 394 kts 115°
2026-05-05 19:54 43.53861 6.30912 13417 ft 389 kts 115°
2026-05-05 19:54 43.52902 6.34374 12976 ft 383 kts 115°
2026-05-05 19:55 43.51971 6.37741 12567 ft 377 kts 115°
2026-05-05 19:55 43.50969 6.41015 12098 ft 368 kts 121°
2026-05-05 19:55 43.49615 6.43976 11740 ft 363 kts 130°
2026-05-05 19:55 43.48043 6.46660 11439 ft 358 kts 135°
2026-05-05 19:56 43.46341 6.49145 11093 ft 357 kts 137°
2026-05-05 19:56 43.44657 6.51585 10803 ft 355 kts 136°
2026-05-05 19:56 43.42965 6.54051 10505 ft 354 kts 136°
2026-05-05 19:56 43.41282 6.56512 10319 ft 349 kts 136°
2026-05-05 19:57 43.39639 6.58909 10270 ft 341 kts 136°
2026-05-05 19:57 43.38579 6.60459 10217 ft 328 kts 136°
2026-05-05 19:57 43.37056 6.63739 10146 ft 295 kts 105°
2026-05-05 19:57 43.36835 6.66491 10116 ft 291 kts 97°
2026-05-05 19:58 43.36730 6.68352 9904 ft 298 kts 97°
2026-05-05 19:58 43.36493 6.72092 9656 ft 290 kts 97°
2026-05-05 19:58 43.36322 6.74780 9423 ft 285 kts 97°
2026-05-05 19:58 43.36148 6.77430 9418 ft 273 kts 98°
2026-05-05 19:59 43.35968 6.80034 9274 ft 278 kts 98°
2026-05-05 19:59 43.35797 6.82724 8916 ft 286 kts 97°
2026-05-05 19:59 43.35633 6.85461 8524 ft 288 kts 96°
2026-05-05 19:59 43.35491 6.88204 8153 ft 288 kts 96°
2026-05-05 20:00 43.35356 6.90901 7995 ft 279 kts 96°
2026-05-05 20:00 43.35212 6.93524 7988 ft 273 kts 97°
2026-05-05 20:00 43.35064 6.96036 7994 ft 272 kts 97°
2026-05-05 20:00 43.34907 6.98622 7991 ft 273 kts 97°
2026-05-05 20:01 43.34753 7.01133 8000 ft 273 kts 97°
2026-05-05 20:01 43.34595 7.03727 8000 ft 274 kts 97°
2026-05-05 20:01 43.34436 7.06335 7996 ft 275 kts 97°
2026-05-05 20:01 43.34320 7.08881 7979 ft 271 kts 89°
2026-05-05 20:02 43.34888 7.11311 8002 ft 275 kts 54°
2026-05-05 20:02 43.36373 7.12936 8014 ft 282 kts 21°
2026-05-05 20:02 43.38246 7.13586 7966 ft 283 kts 11°
2026-05-05 20:02 43.40182 7.14218 7599 ft 289 kts 14°
2026-05-05 20:03 43.42150 7.14925 7107 ft 295 kts 14°
2026-05-05 20:03 43.44131 7.15620 6710 ft 289 kts 14°
2026-05-05 20:03 43.46043 7.16265 6328 ft 276 kts 11°
2026-05-05 20:03 43.47886 7.16394 5988 ft 258 kts 355°
2026-05-05 20:04 43.49606 7.16184 5798 ft 240 kts 354°
2026-05-05 20:04 43.51214 7.15976 5452 ft 226 kts 353°
2026-05-05 20:04 43.52731 7.15786 5065 ft 218 kts 354°
2026-05-05 20:04 43.54213 7.15620 4644 ft 210 kts 354°
2026-05-05 20:05 43.55620 7.15474 4299 ft 197 kts 355°
2026-05-05 20:05 43.56958 7.15441 3877 ft 188 kts 11°
2026-05-05 20:05 43.58010 7.16360 3320 ft 181 kts 61°
2026-05-05 20:05 43.58285 7.18075 3250 ft 187 kts 94°
2026-05-05 20:06 43.57928 7.19756 3068 ft 181 kts 124°
2026-05-05 20:06 43.57081 7.21001 2706 ft 176 kts 136°
2026-05-05 20:06 43.56218 7.22190 2104 ft 175 kts 134°
2026-05-05 20:06 43.55384 7.23360 1534 ft 173 kts 134°